This is the latest recevied weather packets stored in our database for station/object KD4IZ-13. If no packets are shown the sender has not sent any weather packets the latest 10 day(s).
| Time | Temp. | Humidity | Pressure | Rain* | Wind** | Luminosity | Snow |
|---|---|---|---|---|---|---|---|
| 1777772118 | 9.44° C | 63% | 1015.5 hPa | 0 mm | - | 0 W/m² | - |
| 1777771816 | 9.44° C | 63% | 1015.3 hPa | 0 mm | - | 0 W/m² | - |
| 1777771513 | 9.44° C | 62% | 1015.2 hPa | 0 mm | - | 0 W/m² | - |
| 1777771209 | 10° C | 61% | 1015.4 hPa | 0 mm | - | 0 W/m² | - |
| 1777770906 | 10° C | 61% | 1015.1 hPa | 0 mm | - | 0 W/m² | - |
| 1777770603 | 10° C | 60% | 1015 hPa | 0 mm | - | 0 W/m² | - |
| 1777770299 | 10° C | 59% | 1014.9 hPa | 0 mm | - | 0 W/m² | - |
| 1777769997 | 10° C | 58% | 1015 hPa | 0 mm | - | 0 W/m² | - |
| 1777769694 | 10° C | 58% | 1014.8 hPa | 0 mm | - | 0 W/m² | - |
| 1777769391 | 10° C | 59% | 1014.7 hPa | 0 mm | - | 0 W/m² | - |
| 1777769087 | 10° C | 59% | 1014.6 hPa | 0 mm | - | 0 W/m² | - |
| 1777768785 | 10° C | 59% | 1014.6 hPa | 0 mm | - | 0 W/m² | - |
| 1777768482 | 10° C | 60% | 1014.5 hPa | 0 mm | - | 0 W/m² | - |
| 1777768179 | 10° C | 61% | 1014.4 hPa | 0 mm | - | 0 W/m² | - |
| 1777767876 | 10° C | 62% | 1014.4 hPa | 0 mm | - | 0 W/m² | - |
| 1777767572 | 10° C | 63% | 1014.3 hPa | 0 mm | - | 0 W/m² | - |
| 1777767269 | 10.56° C | 61% | 1014 hPa | 0 mm | - | 0 W/m² | - |
| 1777766967 | 10.56° C | 61% | 1014 hPa | 0 mm | - | 0 W/m² | - |
| 1777766663 | 10.56° C | 59% | 1014.2 hPa | 0 mm | - | 1 W/m² | - |
| 1777766361 | 10.56° C | 59% | 1014.1 hPa | 0 mm | - | 3 W/m² | - |
| 1777766057 | 11.11° C | 58% | 1014.1 hPa | 0 mm | - | 5 W/m² | - |
| 1777765755 | 11.11° C | 57% | 1014 hPa | 0 mm | - | 9 W/m² | - |
| 1777765451 | 11.11° C | 56% | 1013.9 hPa | 0 mm | - | 16 W/m² | - |
| 1777765148 | 11.67° C | 56% | 1014.1 hPa | 0 mm | - | 22 W/m² | - |
| 1777764838 | 11.67° C | 56% | 1013.9 hPa | 0 mm | - | 33 W/m² | - |
* Rain latest hour (hover to see other rain measurements)
** Current wind speed in m/s (hover to see current wind gust speed)